Location: Newark
(7.0858°N, 171.3717°E)
Time: 01:37:28
(UTC+00:00)

Vanguard 3 - Pass Details

Date: 05 December 2020
Orbit: 508 x 3262 km, 33.3° (Epoch: 19 January)

Event Time Altitude Azimuth Distance (km) Brightness Sun altitude
Exits shadow 16:34:29 24° 236° (SW) 3,026 9.7 -28.3°
Maximum altitude 16:38:20 29° 205° (SSW) 3,122 10.0 -27.4°
Drops below altitude 10° 16:50:35 10° 152° (SSE) 5,474 12.0 -24.6°
Sets 16:56:37 0° 142° (SE) 6,856 12.8 -23.2°
